RH
14 18 19 17 12 7 6 8 17 29 38 23 15 23 25 31 27 25 23 19 17 18 17 16 18 22 20 25 27 26 24 22 23 26 25 18 13 10 11 14 24 31 29 28 31 31 26
6 5 9 16 9 8 7 8 13 9 13 35 39 25 25 19 31 13 23 24 25 25 27 23 23 25 26 26 20 21 24 26 26 26 26 22 14 12 11 14 23 32 30 27 29 29 26
5 5 4 4 5 11 18 17 20 12 6 6 15 40 30 35 34 45 4 6 9 13 25 28 29 30 34 31 25 19 23 24 24 25 26 26 15 13 12 17 27 30 25 21 24 28 26
4 4 3 3 3 3 4 6 9 28 30 29 14 4 20 38 49 42 32 8 2 4 8 11 16 28 35 31 30 22 15 20 24 24 26 23 15 14 18 26 24 25 26 23 25 27 28
5 4 3 3 2 2 2 2 2 2 3 18 8 5 4 4 10 41 47 48 40 11 3 4 7 11 32 28 32 30 24 19 17 21 23 23 16 15 19 30 27 26 22 20 23 31 34
5 5 4 3 3 3 3 3 3 3 4 4 5 8 5 5 4 4 23 44 46 34 14 5 3 6 17 22 21 21 22 18 15 19 23 27 19 23 19 30 21 19 27 20 30 34 33
5 5 4 4 4 3 3 2 2 3 4 4 7 8 9 10 9 8 5 4 15 30 15 8 7 2 4 13 20 21 19 22 14 13 20 28 23 22 15 16 16 20 24 24 35 35 37
3 4 4 4 4 5 4 3 2 2 2 3 5 6 8 11 13 12 10 9 4 18 22 9 10 28 18 3 17 25 25 25 21 14 21 34 25 24 20 21 22 27 21 19 34 36 36
2 3 3 4 5 5 5 4 3 3 2 3 5 7 7 10 13 14 14 15 13 10 8 10 8 6 18 11 6 6 31 27 28 21 22 30 26 26 24 21 22 20 18 29 36 35 33
3 3 4 5 5 6 5 5 4 3 3 3 4 8 11 13 14 16 17 17 18 18 18 2 2 3 3 4 5 5 11 27 32 33 29 40 28 28 32 25 20 21 22 35 37 40 35
4 4 5 6 6 7 6 6 5 4 4 6 8 12 15 20 28 24 23 21 21 35 23 2 4 3 11 11 6 4 3 17 34 28 32 40 31 32 37 26 31 22 34 38 40 42 38
5 5 6 6 7 8 7 6 4 4 6 12 15 19 26 41 40 46 30 26 51 29 64 2 12 14 7 22 16 14 9 5 20 32 39 40 35 40 32 31 32 33 38 38 41 41 48
7 6 7 8 8 8 8 6 4 5 12 17 20 29 53 59 54 60 34 51 91 94 9 11 41 40 29 28 28 18 29 6 26 46 45 41 36 43 43 37 36 41 42 49 52 51 53
9 10 11 11 11 9 8 6 6 8 16 22 45 63 67 68 72 62 37 97 99 54 27 29 34 38 45 37 36 29 39 16 22 42 39 44 38 32 34 39 35 37 38 47 59 63 52
14 15 14 12 11 9 8 7 11 16 22 67 100 100 87 75 78 65 41 100 88 82 50 31 24 25 34 45 49 43 36 36 12 39 44 41 40 30 30 28 40 36 43 39 40 45 60
16 14 12 10 10 10 11 15 19 30 61 100 98 97 86 97 94 75 50 98 99 75 55 34 30 26 33 35 56 56 52 60 41 28 39 42 48 40 37 39 38 41 39 40 44 58 66
9 8 9 10 14 17 20 23 26 54 100 99 98 99 82 99 99 92 70 97 100 87 50 32 40 28 31 34 38 44 58 62 69 65 43 42 47 42 34 41 38 42 42 41 40 38 52
10 13 16 21 24 27 26 26 35 67 100 98 98 98 99 97 100 86 81 82 93 82 71 66 41 38 31 30 33 37 43 41 55 58 65 65 60 51 45 34 32 38 38 38 43 52 44
33 35 35 33 33 29 24 28 52 89 99 98 98 99 98 96 96 91 94 76 82 92 78 70 62 52 45 54 46 35 28 42 51 58 78 78 78 70 56 49 46 47 38 42 42 40 42
41 38 35 32 25 20 22 44 71 91 98 98 98 98 98 98 84 80 97 93 95 71 74 77 66 55 63 62 60 48 34 42 41 47 64 73 91 100 90 63 48 43 38 36 39 40 43
20 24 22 22 19 26 46 65 85 97 98 98 97 96 93 97 95 88 93 85 75 91 97 73 76 64 66 81 71 59 44 42 33 55 71 68 84 91 97 83 66 53 47 38 37 38 42
81 79 76 74 62 58 68 83 92 99 98 97 97 95 100 92 100 94 90 72 100 100 99 81 81 66 75 68 64 59 55 56 54 53 56 82 70 73 72 85 72 69 49 44 41 42 41
93 96 97 98 99 96 94 93 98 99 97 97 96 92 100 98 100 100 70 97 100 100 100 85 84 82 87 72 70 64 66 70 49 55 58 80 78 67 67 64 94 65 57 55 44 43 42
96 96 96 96 96 96 97 98 99 99 97 95 89 92 100 99 92 84 100 99 89 95 96 84 86 87 64 86 89 90 86 72 50 49 85 94 89 85 64 67 89 70 62 61 52 44 39
94 97 96 96 96 96 96 96 96 97 97 96 96 97 96 100 100 100 99 100 99 86 98 88 78 72 74 90 94 92 80 69 54 72 80 74 80 84 65 70 54 34 51 59 58 48 45
100 98 98 100 100 96 96 96 96 96 97 97 96 99 100 100 99 100 99 97 93 96 98 83 69 70 75 79 97 97 84 63 62 85 63 68 100 100 100 89 84 30 31 29 56 75 50
99 99 98 98 98 98 97 96 96 96 97 96 96 94 99 98 98 96 93 92 97 98 92 81 64 68 66 81 100 100 94 82 66 79 96 98 100 99 100 86 67 42 29 33 82 72 54
95 94 95 96 93 83 80 84 92 96 96 97 97 96 96 98 97 97 95 96 89 100 92 79 82 72 76 79 90 96 92 87 79 68 61 78 84 87 99 93 80 54 71 67 98 93 68
96 96 97 97 98 100 97 100 100 92 88 96 96 95 96 98 95 93 94 96 97 98 95 92 73 56 51 58 65 80 71 83 77 73 72 65 60 59 60 50 46 55 51 57 69 95 90
Wind_Speed
28 28 27 27 28 28 28 27 26 28 30 31 31 32 32 33 31 29 27 26 26 28 26 25 26 27 27 29 19 21 20 16 17 17 16 16 16 15 16 13 13 15 18 19 14 14 15
28 29 29 29 30 29 27 28 29 31 30 30 35 33 34 32 31 30 28 27 27 28 30 29 28 27 29 31 19 24 24 23 22 21 17 19 14 15 19 18 19 20 20 21 18 15 16
29 29 30 30 32 31 30 30 30 30 31 34 33 34 36 37 37 35 29 26 27 27 31 31 31 32 32 22 22 24 20 21 19 20 18 17 17 18 21 20 22 21 23 20 21 20 22
28 29 29 30 31 32 34 33 33 33 32 31 34 37 35 33 31 32 32 27 26 29 29 31 32 35 40 24 24 21 23 25 20 20 16 15 20 21 24 21 22 19 19 18 5 3 10
29 28 28 28 29 30 30 31 31 31 34 35 35 35 37 37 37 30 31 29 30 31 30 33 33 32 36 29 24 29 28 26 23 23 21 17 22 24 24 24 22 22 22 16 11 10 21
30 30 30 30 30 29 30 30 29 30 32 32 33 33 32 32 31 32 33 32 32 34 35 35 36 30 26 19 12 22 24 28 28 25 24 24 26 29 30 28 25 19 22 15 11 9 14
32 32 32 32 32 32 31 31 31 31 31 32 31 33 31 28 26 27 28 35 33 37 40 37 35 30 21 23 19 26 21 19 29 31 31 28 31 41 34 30 24 21 19 23 10 4 10
36 36 34 34 34 34 34 34 33 32 33 32 33 33 33 27 24 23 23 24 32 35 39 39 42 38 29 33 24 18 25 25 27 35 32 29 38 36 31 27 23 21 23 23 16 9 15
37 37 36 35 35 34 36 35 33 34 33 33 32 33 33 28 23 22 20 23 26 31 35 44 39 42 34 37 38 31 24 24 28 33 35 38 29 29 32 31 27 25 23 17 19 16 17
38 37 37 37 37 36 36 35 35 34 33 33 32 32 31 25 22 20 21 21 23 23 21 39 40 38 37 42 47 30 35 30 33 31 33 34 39 10 13 31 26 26 20 19 20 22 22
38 38 38 38 37 36 37 35 34 34 33 31 29 29 27 21 18 17 20 16 16 12 6 8 11 16 15 21 22 29 34 41 38 33 31 32 34 40 34 25 18 28 16 17 21 30 18
41 41 40 39 38 38 38 36 34 34 33 29 27 25 22 17 15 20 17 14 10 7 9 4 4 9 17 11 10 12 24 43 41 35 33 27 30 24 25 25 24 18 18 21 25 22 13
43 43 41 40 40 39 39 37 35 33 30 28 25 23 18 16 15 20 18 15 10 10 3 3 2 9 12 8 8 16 12 44 37 33 37 32 34 33 26 20 21 19 16 4 6 5 9
44 42 41 41 40 40 39 36 35 31 30 26 23 24 20 17 20 20 23 22 17 7 22 4 4 3 10 9 8 14 13 33 42 26 9 27 18 37 32 36 27 24 25 13 6 4 7
44 43 42 42 41 39 38 36 34 29 27 21 19 23 23 18 23 24 29 36 15 21 7 15 4 3 4 8 9 9 16 16 38 38 19 13 20 19 18 34 30 31 31 24 32 17 4
42 42 42 41 40 38 36 34 32 27 23 20 24 26 27 20 25 29 37 40 29 13 13 8 8 3 3 3 1 2 5 6 16 28 40 22 7 10 14 15 30 31 16 14 16 5 7
41 41 40 40 38 36 35 34 32 27 23 24 28 30 33 25 27 33 47 40 33 27 17 16 13 14 9 8 3 1 2 1 7 4 25 32 38 33 21 15 20 24 29 30 23 25 8
38 38 38 37 37 36 35 33 31 29 26 31 33 37 38 30 35 40 49 45 31 17 34 34 32 30 26 22 22 11 2 6 9 9 4 8 13 26 46 45 34 19 32 29 27 7 17
36 36 36 36 36 36 35 34 33 32 33 36 38 40 37 34 46 47 41 40 42 28 22 17 27 31 39 30 15 14 19 10 7 9 10 8 2 10 24 25 23 31 39 24 28 30 34
37 37 37 37 36 36 35 34 35 36 39 39 39 40 40 38 47 46 45 42 33 42 40 28 30 27 22 17 20 17 19 15 12 15 16 17 12 11 9 17 13 20 27 35 30 35 29
41 41 40 39 38 37 36 36 37 39 42 42 43 40 43 45 53 49 43 45 44 39 24 28 40 35 24 22 18 24 26 24 26 13 13 17 15 20 20 20 24 33 25 28 38 43 34
45 44 42 42 42 40 40 38 40 43 42 46 48 50 38 52 38 46 50 53 40 30 32 34 32 27 21 30 36 29 16 15 15 10 13 13 22 27 31 18 13 26 36 42 34 29 32
37 36 35 35 36 38 39 39 41 44 43 44 50 50 46 41 45 45 58 48 40 36 29 23 18 14 15 22 23 23 20 19 24 19 15 14 12 16 21 26 31 17 36 40 39 46 42
34 33 32 32 32 35 37 40 43 46 48 48 50 56 54 47 53 57 44 45 43 42 35 27 22 17 3 7 11 15 19 18 21 22 17 15 13 12 14 16 5 10 11 19 41 43 43
31 30 30 30 31 33 36 40 43 46 50 51 53 57 61 62 50 46 49 39 34 34 34 31 23 21 17 13 14 13 13 16 25 22 23 18 15 10 6 5 23 48 26 19 24 38 42
26 27 28 29 31 35 37 39 41 44 46 48 56 58 59 57 56 42 40 42 43 38 30 34 28 20 21 24 20 12 7 4 4 8 23 22 20 18 11 4 6 39 38 33 31 43 33
27 28 30 32 33 34 37 40 41 43 39 46 55 62 64 59 45 35 49 51 44 40 35 29 22 25 23 28 28 22 20 12 10 10 10 12 13 19 17 10 14 25 26 31 19 21 16
22 21 22 25 26 28 30 31 33 37 47 41 47 52 54 57 49 39 28 29 35 38 41 36 22 24 25 31 31 24 16 15 20 23 18 17 10 15 14 10 12 21 14 9 13 4 21
21 22 23 26 28 30 31 31 30 34 39 45 45 45 44 44 43 42 28 30 31 26 23 33 32 20 22 24 27 22 26 17 15 22 20 26 27 21 22 19 16 27 26 21 26 16 5
Wind_Direction
273 271 270 271 271 272 273 273 273 273 272 270 273 272 267 265 264 262 261 263 266 268 270 268 266 268 267 265 264 260 250 244 252 255 262 247 240 246 239 234 235 255 252 249 271 299 293
273 272 270 269 271 270 271 271 272 273 269 275 267 267 269 266 266 266 260 260 262 265 267 268 268 263 264 266 270 252 253 252 253 255 258 257 243 246 243 230 245 256 258 251 258 276 281
275 273 271 270 268 264 265 268 272 273 275 270 271 270 267 267 265 259 264 259 262 265 263 267 267 266 258 265 263 254 250 247 247 250 244 249 241 233 241 234 240 256 274 271 260 263 270
276 274 273 271 270 270 267 266 265 265 269 270 276 269 263 261 262 259 254 258 260 262 264 266 267 266 263 259 255 261 254 249 245 245 239 236 229 228 233 238 244 258 271 280 39 307 289
278 277 275 272 272 272 269 270 269 266 266 262 271 270 268 265 265 265 250 254 257 265 266 265 266 268 270 270 254 250 247 243 231 234 232 221 226 227 228 237 250 257 262 255 276 296 318
277 277 276 275 274 272 272 271 269 271 271 270 272 273 270 269 268 264 252 251 255 266 264 265 266 267 261 255 219 233 238 238 228 222 227 216 222 222 224 226 234 253 253 261 268 308 312
276 276 276 275 275 275 273 272 270 272 270 271 270 273 272 272 272 271 264 254 259 263 261 262 259 261 262 265 250 226 229 238 226 220 223 220 218 225 233 235 247 254 255 279 264 286 307
274 275 274 273 273 275 275 274 273 273 272 272 272 271 274 274 275 277 276 273 264 263 259 259 260 261 253 252 240 211 223 226 222 221 218 214 227 234 236 238 241 252 260 264 277 275 269
274 273 273 273 274 273 274 275 275 273 274 273 271 271 270 273 275 272 271 273 273 275 276 259 257 260 256 256 255 232 226 224 227 223 219 221 231 245 239 234 236 241 248 249 271 302 294
274 272 272 271 271 273 274 276 276 276 273 271 270 268 269 271 268 265 261 266 275 283 290 275 271 267 259 258 254 241 221 228 229 228 228 230 225 202 207 228 232 241 229 246 269 277 285
273 272 271 270 271 272 272 273 274 274 273 270 267 266 268 269 266 254 249 258 271 289 299 275 259 238 236 247 252 243 228 219 227 227 222 225 231 228 234 240 226 238 222 258 266 283 273
273 271 270 269 270 271 272 272 271 269 268 266 263 263 263 260 249 232 233 236 226 226 250 273 263 236 243 247 219 220 212 211 225 228 229 239 239 238 239 240 242 232 253 268 281 253 256
269 268 267 266 266 267 269 270 267 264 261 259 259 257 256 245 230 226 214 202 201 226 238 265 294 254 262 252 251 210 217 203 203 212 228 229 235 233 236 239 222 229 247 272 269 241 253
268 267 266 265 264 265 266 266 265 259 257 255 255 253 242 226 226 221 207 190 220 260 237 144 164 192 237 253 253 222 237 214 209 215 222 217 247 233 228 229 228 231 233 213 224 213 256
269 267 265 263 262 262 261 261 259 255 251 247 247 249 246 218 221 217 204 203 222 233 333 249 267 333 182 218 235 238 237 242 223 213 218 209 232 231 236 234 223 234 240 243 246 264 257
270 268 265 263 262 261 258 256 253 248 242 231 229 243 247 227 224 215 209 216 221 198 217 264 256 249 238 100 173 218 203 45 233 237 227 234 249 233 235 238 230 233 235 229 225 195 250
267 266 264 262 260 257 255 252 247 238 229 218 224 232 245 225 226 221 220 218 230 210 214 215 266 261 251 277 302 23 208 111 101 97 227 237 242 246 240 242 233 232 236 241 254 233 232
266 264 262 259 256 254 251 247 241 230 217 213 220 228 236 222 219 227 229 223 227 234 225 231 239 254 261 266 270 286 228 247 319 353 304 232 255 249 252 252 251 259 244 243 229 225 237
267 266 263 259 256 253 248 243 238 223 209 214 221 225 232 231 226 230 231 235 226 219 214 219 233 248 252 258 260 266 266 246 288 302 338 310 247 289 260 254 255 249 247 242 247 250 239
271 266 263 259 255 249 244 241 234 222 207 214 223 221 222 223 236 237 233 233 233 236 236 232 240 246 248 246 239 251 246 233 272 291 281 292 294 280 280 272 273 269 256 244 240 244 248
269 267 264 259 252 247 244 238 229 219 213 213 222 223 222 214 226 231 236 238 240 233 236 239 245 244 245 261 260 254 269 278 265 292 290 272 296 289 287 280 279 256 265 246 242 250 244
273 269 264 258 253 248 241 234 223 218 217 219 217 219 222 227 230 232 231 239 233 232 234 242 245 250 251 253 259 255 266 268 273 258 268 302 269 281 292 306 310 268 251 248 243 248 250
269 264 259 253 247 242 236 227 222 218 216 221 218 222 228 231 230 232 238 232 234 234 244 246 255 253 248 249 261 270 274 273 259 254 266 275 278 288 284 281 316 265 253 256 255 250 258
267 263 257 250 243 238 231 224 222 220 220 217 219 221 221 228 233 236 235 242 241 235 240 246 231 233 244 252 265 246 259 262 254 239 246 241 266 283 288 299 272 272 306 288 252 252 253
263 259 254 248 243 238 232 227 225 222 222 221 218 221 224 227 231 240 236 237 248 250 242 248 246 241 237 264 269 281 287 270 249 231 234 250 250 249 264 262 279 272 293 319 292 266 251
259 254 251 246 239 234 231 227 226 224 220 214 213 219 223 228 229 235 238 239 242 243 244 250 252 236 241 250 258 244 246 283 223 199 229 232 230 229 193 199 243 282 282 293 296 278 263
260 251 246 242 238 235 230 226 223 217 210 213 219 220 224 231 230 232 236 241 245 243 246 257 253 238 233 233 244 249 244 241 246 227 197 199 212 220 222 240 269 294 280 292 263 258 259
260 252 244 236 231 233 228 222 218 213 202 203 214 221 223 229 230 230 235 239 242 240 244 249 241 233 227 226 229 235 246 237 250 243 236 221 212 217 215 231 275 274 259 285 253 299 246
257 250 247 241 235 231 228 218 215 211 205 207 211 219 220 230 238 242 236 227 226 229 249 234 242 235 219 221 231 228 238 238 247 244 236 232 231 239 234 240 248 279 304 285 327 304 310